This is the latest recevied weather packets stored in our database for station/object KB9HUO. If no packets are shown the sender has not sent any weather packets the latest 10 day(s).
| Time | Temp. | Humidity | Pressure | Rain* | Wind** | Luminosity | Snow |
|---|---|---|---|---|---|---|---|
| 1778109780 | 15° C | 56% | 1014.9 hPa | 0 mm | - | 32 W/m² | - |
| 1778109477 | 15° C | 57% | 1014.6 hPa | 0 mm | - | 43 W/m² | - |
| 1778109175 | 15° C | 54% | 1014.9 hPa | 0 mm | - | 46 W/m² | - |
| 1778108872 | 15° C | 55% | 1014.6 hPa | 0 mm | - | 50 W/m² | - |
| 1778108569 | 15° C | 54% | 1014.8 hPa | 0 mm | - | 71 W/m² | - |
| 1778108265 | 15° C | 54% | 1015.1 hPa | 0 mm | - | 72 W/m² | - |
| 1778107963 | 15° C | 56% | 1015.1 hPa | 0 mm | - | 52 W/m² | - |
| 1778107659 | 15.56° C | 52% | 1014.9 hPa | 0 mm | - | 53 W/m² | - |
| 1778107356 | 15.56° C | 52% | 1015 hPa | 0 mm | - | 58 W/m² | - |
| 1778107052 | 15.56° C | 51% | 1015 hPa | 0 mm | - | 57 W/m² | - |
| 1778106748 | 15.56° C | 52% | 1014.9 hPa | 0 mm | - | 47 W/m² | - |
| 1778106445 | 15° C | 54% | 1014.8 hPa | 0 mm | - | 64 W/m² | - |
| 1778106140 | 15.56° C | 50% | 1014.6 hPa | 0 mm | - | 60 W/m² | - |
| 1778105839 | 15.56° C | 49% | 1014.6 hPa | 0 mm | - | 77 W/m² | - |
| 1778105537 | 16.11° C | 48% | 1014.5 hPa | 0 mm | - | 82 W/m² | - |
| 1778105234 | 15.56° C | 48% | 1014.8 hPa | 0 mm | - | 97 W/m² | - |
| 1778104928 | 15.56° C | 49% | 1014.5 hPa | 0 mm | - | 96 W/m² | - |
| 1778104625 | 15.56° C | 51% | 1014.9 hPa | 0 mm | - | 98 W/m² | - |
| 1778104321 | 15° C | 60% | 1014.9 hPa | 0 mm | - | 102 W/m² | - |
| 1778104018 | 15° C | 57% | 1014.6 hPa | 0 mm | - | 103 W/m² | - |
| 1778103715 | 15.56° C | 62% | 1014.8 hPa | 0 mm | - | 95 W/m² | - |
| 1778103414 | 15.56° C | 57% | 1014.5 hPa | 0 mm | - | 99 W/m² | - |
| 1778103111 | 15.56° C | 59% | 1014.5 hPa | 0 mm | - | 104 W/m² | - |
| 1778102808 | 15.56° C | 59% | 1014.9 hPa | 0 mm | - | 107 W/m² | - |
| 1778102508 | 15.56° C | 57% | 1015.1 hPa | 0 mm | - | 117 W/m² | - |
* Rain latest hour (hover to see other rain measurements)
** Current wind speed in m/s (hover to see current wind gust speed)